Fernandina Beach, FL

12:02 AM EST on December 10, 2019 (GMT -0500)
Fernandina Beach

Weather History for KFHB - October, 2019

Change the Weather History Date:

Wednesday, October 16, 2019

  Actual Average (KNRB) Record (KNRB)
Temperature  
Mean Temperature 80 °F -  
Max Temperature 87 °F 76 °F 88 °F (2019)
Min Temperature 72 °F 65 °F 57 °F (2000)
Cooling Degree Days 14    
Growing Degree Days 30 (Base 50)    
Moisture  
Dew Point 71 °F    
Average Humidity 80    
Maximum Humidity 93    
Minimum Humidity 55    
Precipitation  
Precipitation 0.03 in - - ()
Sea Level Pressure  
Sea Level Pressure 29.84 in    
Wind  
Wind Speed 13 mph (WSW)    
Max Wind Speed 21 mph    
Max Gust Speed 33 mph    
Visibility 10 miles    
Events Rain    
Averages and records for this station are not official NWS values.
T = Trace of Precipitation, MM = Missing Value Source: NWS Daily Summary

Daily Weather History Graph

Daily Weather History Graph

Search for Another Location

Airport or City:

Astronomy

Oct. 16, 2019 Rise Set
Actual Time 7:28 AM EDT 6:53 PM EDT
Civil Twilight 7:04 AM EDT 7:17 PM EDT
Nautical Twilight 6:36 AM EDT 7:45 PM EDT
Astronomical Twilight 6:08 AM EDT 8:13 PM EDT
Moon 8:55 PM EDT (10/16) 9:50 AM EDT (10/16)
Length of Visible Light 12h 13m
Length of Day
11h 24m
Waning Gibbous, 93% of the Moon is Illuminated
Oct 16
Waning Gibbous
Oct 21
Last Quarter
Oct 27
New
Nov 4
First Quarter
Nov 12
Full

Hourly Weather History & Observations

Time (EDT) Temp. Heat Index Dew Point Humidity Pressure Visibility Wind Dir Wind Speed Gust Speed Precip Events Conditions
12:15 AM 76.8 °F - 73.4 °F 89% 29.93 in 10.0 mi South 9.2 mph - N/A Rain Light Rain
12:35 AM 76.5 °F - 73.4 °F 90% 29.94 in 10.0 mi South 11.5 mph - N/A Rain Light Rain
12:55 AM 76.3 °F - 73.0 °F 90% 29.94 in 10.0 mi SSW 11.5 mph - N/A Rain Light Rain
1:15 AM 75.9 °F - 72.0 °F 87% 29.93 in 10.0 mi South 12.7 mph - N/A Rain Light Rain
1:35 AM 75.9 °F - 71.8 °F 87% 29.93 in 10.0 mi SSW 11.5 mph - N/A   Scattered Clouds
1:55 AM 75.7 °F - 70.9 °F 85% 29.92 in 10.0 mi SSW 11.5 mph - N/A   Scattered Clouds
2:15 AM 75.2 °F - 70.9 °F 86% 29.92 in 10.0 mi SSW 13.8 mph - N/A Rain Light Rain
2:35 AM 75.0 °F - 71.1 °F 87% 29.91 in 10.0 mi SSW 12.7 mph - N/A Rain Light Rain
2:55 AM 74.3 °F - 71.4 °F 91% 29.91 in 10.0 mi SSW 13.8 mph - N/A Rain Light Rain
3:15 AM 75.2 °F - 71.6 °F 89% 29.91 in 10.0 mi SSW 13.8 mph - N/A Rain Light Rain
3:35 AM 75.2 °F - 71.6 °F 89% 29.90 in 10.0 mi SW 13.8 mph - N/A   Overcast
3:55 AM 73.9 °F - 71.6 °F 92% 29.89 in 10.0 mi SSW 13.8 mph - N/A   Light Drizzle
4:15 AM 73.8 °F - 71.4 °F 92% 29.88 in 10.0 mi SSW 13.8 mph - N/A   Mostly Cloudy
4:35 AM 73.8 °F - 71.2 °F 92% 29.87 in 10.0 mi SSW 13.8 mph - N/A   Scattered Clouds
4:55 AM 73.8 °F - 71.1 °F 91% 29.87 in 10.0 mi SSW 13.8 mph - N/A   Clear
5:15 AM 73.8 °F - 71.2 °F 92% 29.86 in 10.0 mi SSW 13.8 mph - N/A   Clear
5:35 AM 73.8 °F - 71.1 °F 91% 29.86 in 10.0 mi SSW 13.8 mph - N/A   Clear
5:55 AM 73.9 °F - 71.2 °F 91% 29.86 in 10.0 mi SSW 13.8 mph - N/A   Clear
6:15 AM 73.8 °F - 71.2 °F 92% 29.86 in 10.0 mi SSW 13.8 mph - N/A   Clear
6:35 AM 73.8 °F - 71.4 °F 92% 29.86 in 10.0 mi SSW 12.7 mph - N/A   Clear
6:55 AM 73.6 °F - 71.4 °F 93% 29.85 in 10.0 mi SW 12.7 mph - N/A   Clear
7:15 AM 74.1 °F - 71.4 °F 91% 29.84 in 10.0 mi SSW 15.0 mph 19.6 mph N/A   Scattered Clouds
7:35 AM 74.3 °F - 71.6 °F 91% 29.84 in 10.0 mi SW 12.7 mph - N/A   Clear
7:55 AM 74.8 °F - 71.8 °F 90% 29.84 in 10.0 mi SW 13.8 mph - N/A   Scattered Clouds
8:15 AM 75.0 °F - 72.0 °F 90% 29.83 in 10.0 mi SSW 17.3 mph 23.0 mph N/A   Scattered Clouds
8:35 AM 75.6 °F - 72.1 °F 89% 29.82 in 10.0 mi SW 17.3 mph 25.3 mph N/A   Scattered Clouds
8:55 AM 75.7 °F - 72.5 °F 90% 29.83 in 10.0 mi SW 17.3 mph - N/A   Clear
9:15 AM 76.1 °F - 72.7 °F 89% 29.82 in 10.0 mi SW 19.6 mph 25.3 mph N/A   Clear
9:35 AM 77.0 °F - 73.0 °F 88% 29.82 in 10.0 mi SW 17.3 mph 21.9 mph N/A   Scattered Clouds
9:55 AM 77.9 °F - 73.0 °F 85% 29.83 in 10.0 mi SW 16.1 mph - N/A   Scattered Clouds
10:35 AM 80.8 °F 85.9 °F 74.1 °F 80% 29.83 in 10.0 mi WSW 15.0 mph 21.9 mph N/A   Scattered Clouds
10:55 AM 81.5 °F 87.2 °F 73.9 °F 78% 29.83 in 10.0 mi WSW 13.8 mph 24.2 mph N/A   Scattered Clouds
11:15 AM 82.8 °F 89.0 °F 73.8 °F 74% 29.83 in 10.0 mi West 19.6 mph 26.5 mph N/A   Mostly Cloudy
11:35 AM 84.0 °F 91.2 °F 73.9 °F 72% 29.82 in 10.0 mi WSW 15.0 mph - N/A   Overcast
11:55 AM 84.2 °F 91.2 °F 73.8 °F 71% 29.82 in 10.0 mi West 19.6 mph 28.8 mph N/A   Overcast
12:15 PM 82.9 °F 89.4 °F 73.9 °F 74% 29.82 in 10.0 mi West 18.4 mph 25.3 mph N/A   Overcast
12:35 PM 78.4 °F - 73.6 °F 85% 29.82 in 10.0 mi WNW 19.6 mph 33.4 mph 0.03 in   Overcast
12:55 PM 80.4 °F 85.6 °F 74.7 °F 83% 29.81 in 10.0 mi West 11.5 mph - 0.03 in   Mostly Cloudy
1:15 PM 83.1 °F 89.5 °F 73.8 °F 73% 29.80 in 10.0 mi West 16.1 mph 25.3 mph N/A   Mostly Cloudy
1:35 PM 84.4 °F 90.3 °F 72.5 °F 67% 29.80 in 10.0 mi West 16.1 mph 24.2 mph N/A   Mostly Cloudy
1:55 PM 83.7 °F 89.2 °F 72.1 °F 68% 29.80 in 10.0 mi West 13.8 mph 23.0 mph N/A   Mostly Cloudy
2:15 PM 85.5 °F 91.1 °F 71.6 °F 63% 29.79 in 10.0 mi West 15.0 mph - N/A   Mostly Cloudy
2:35 PM 86.7 °F 92.1 °F 70.9 °F 59% 29.79 in 10.0 mi West 20.7 mph 26.5 mph N/A   Mostly Cloudy
2:55 PM 86.7 °F 93.3 °F 72.1 °F 62% 29.78 in 10.0 mi WNW 13.8 mph - N/A   Mostly Cloudy
3:15 PM 87.3 °F 92.8 °F 70.7 °F 58% 29.78 in 10.0 mi WNW 16.1 mph 21.9 mph N/A   Mostly Cloudy
3:35 PM 86.2 °F 90.7 °F 69.8 °F 58% 29.79 in 10.0 mi WNW 15.0 mph 25.3 mph N/A   Mostly Cloudy
3:55 PM 87.8 °F 93.4 °F 70.7 °F 57% 29.79 in 10.0 mi West 17.3 mph 21.9 mph N/A   Mostly Cloudy
4:15 PM 86.4 °F 90.0 °F 68.5 °F 55% 29.79 in 10.0 mi West 19.6 mph 27.6 mph N/A   Scattered Clouds
4:35 PM 85.5 °F 89.1 °F 68.5 °F 57% 29.78 in 10.0 mi West 17.3 mph 25.3 mph N/A   Clear
4:55 PM 85.6 °F 89.4 °F 68.9 °F 57% 29.78 in 10.0 mi West 17.3 mph 26.5 mph N/A   Clear
5:15 PM 84.2 °F 87.9 °F 69.1 °F 60% 29.77 in 10.0 mi West 12.7 mph 18.4 mph N/A   Clear
5:35 PM 83.7 °F 87.2 °F 69.1 °F 61% 29.76 in 10.0 mi West 15.0 mph 18.4 mph N/A   Clear
5:55 PM 84.2 °F 88.1 °F 69.4 °F 61% 29.76 in 10.0 mi West 12.7 mph - N/A   Clear
6:15 PM 81.7 °F 85.4 °F 70.3 °F 68% 29.77 in 10.0 mi WNW 11.5 mph - N/A   Clear
6:35 PM 80.6 °F 83.9 °F 70.0 °F 70% 29.77 in 10.0 mi NW 10.4 mph - N/A   Clear
6:55 PM 79.7 °F - 70.2 °F 73% 29.78 in 10.0 mi NW 9.2 mph - N/A   Clear
7:15 PM 78.4 °F - 70.3 °F 76% 29.79 in 10.0 mi WNW 6.9 mph - N/A   Clear
7:35 PM 78.4 °F - 69.6 °F 74% 29.80 in 10.0 mi WNW 10.4 mph - N/A   Clear
7:55 PM 77.7 °F - 69.3 °F 75% 29.81 in 10.0 mi WNW 10.4 mph - N/A   Clear
8:55 PM 75.0 °F - 69.4 °F 83% 29.83 in 10.0 mi West 5.8 mph - N/A   Clear
9:15 PM 74.8 °F - 69.3 °F 83% 29.84 in 10.0 mi West 6.9 mph - N/A   Clear
9:35 PM 74.5 °F - 69.3 °F 84% 29.84 in 10.0 mi West 6.9 mph - N/A   Clear
9:55 PM 74.3 °F - 69.1 °F 84% 29.85 in 10.0 mi West 8.1 mph - N/A   Clear
10:15 PM 73.8 °F - 69.1 °F 85% 29.86 in 10.0 mi West 6.9 mph - N/A   Clear
10:35 PM 73.4 °F - 69.3 °F 87% 29.87 in 10.0 mi West 6.9 mph - N/A   Clear
10:55 PM 73.4 °F - 69.1 °F 86% 29.88 in 10.0 mi West 9.2 mph - N/A   Clear
11:15 PM 72.9 °F - 68.7 °F 87% 29.89 in 10.0 mi West 9.2 mph - N/A   Clear
11:35 PM 72.7 °F - 68.7 °F 87% 29.89 in 10.0 mi West 8.1 mph - N/A   Clear
11:55 PM 72.5 °F - 68.7 °F 88% 29.89 in 10.0 mi West 8.1 mph - N/A   Clear